Flag for U.S.A. Weather past 2 weeks in El Monte, California, U.S.A.

Now
61 °F

Overcast.


Feels Like: 61 °F
Forecast: 58 / 70 °F
Wind: No wind

Location: Fullerton Municipal Airport

Current Time: Jan 30, 2015 at 6:02:47 AM

Latest Report: Jan 30, 2015 at 4:53 AM


Visibility: 10 mi

Pressure: 29.91 "Hg

Humidity: 78%

Dew point: 54 °F

Location of El MonteLocation

Historic Weather in El Monte — Graph

°F

El Monte temperature yesterday

Maximum temperature yesterday: 77 °F (at 11:53 AM)
Minimum temperature yesterday: 60 °F (at 4:53 AM)
Average temperature yesterday: 67 °F

Past Weeks' High & Low Weather Summary

 TemperatureHumidityPressure
High84 °F (Jan 24, 2:53 PM)93% (Jan 20, 2:53 AM)30.24 "Hg (Jan 20, 2:53 AM)
Low46 °F (Jan 16, 5:53 AM)9% (Jan 23, 2:53 PM)29.89 "Hg (Jan 20, 2:53 PM)
Average63 °F50%30.08 "Hg
* Reported Jan 15 4:53 AM — Jan 30 4:53 AM, El Monte, Weather by CustomWeather, © 2014

Note: Actual official high and low records may vary slightly from our data, if they occured in-between our weather recording intervals... More about our weather records

Advertising

El Monte weather history for previous 24 hours

 ConditionsComfort  
Time TempWeatherWind HumidityBarometerVisibility
4:53 AM
Jan 30
61 °FOvercast.No wind78%29.91 "Hg10 mi
3:53 AM61 °FOvercast.No wind78%29.91 "Hg10 mi
2:53 AM61 °FMostly cloudy.No wind75%29.93 "Hg10 mi
1:53 AM62 °FLight rain. Overcast.3 mph70%29.95 "Hg10 mi
12:53 AM63 °FMostly cloudy.No wind65%29.97 "Hg10 mi
11:53 PM
Jan 29
63 °FMostly cloudy.No wind65%30.00 "Hg10 mi
10:53 PM64 °FLight rain. Overcast.No wind61%30.00 "Hg10 mi
9:53 PM65 °FOvercast.5 mph56%30.00 "Hg10 mi
8:53 PM66 °FPassing clouds.5 mph52%30.01 "Hg10 mi
7:53 PM66 °FMostly cloudy.3 mph54%30.02 "Hg10 mi
6:53 PM67 °FLight rain. Overcast.No wind55%30.02 "Hg10 mi
5:53 PM67 °FOvercast.No wind57%29.99 "Hg10 mi
4:53 PM68 °FPassing clouds.3 mph57%29.98 "Hg10 mi
3:53 PM70 °FPassing clouds.No wind51%29.98 "Hg10 mi
2:53 PM72 °FSunny.5 mph41%29.97 "Hg10 mi
1:53 PM74 °FSunny.7 mph32%29.96 "Hg10 mi
12:53 PM76 °FSunny.6 mph30%29.98 "Hg10 mi
11:53 AM77 °FSunny.9 mph28%30.01 "Hg10 mi
10:53 AM76 °FSunny.3 mph30%30.04 "Hg10 mi
9:53 AM74 °FSunny.6 mph29%30.05 "Hg10 mi
8:53 AM70 °FSunny.No wind42%30.04 "Hg10 mi
7:53 AM62 °FSunny.No wind56%30.02 "Hg10 mi
6:53 AM61 °FSunny.No wind54%30.02 "Hg10 mi
Weather by CustomWeather, © 2014

See weather overviewHow to use our weather pages